Volver al catálogo

QIANFAN-73

ActivoComunicacionesPO
NORAD 63159·PAYLOAD·🇨🇳 China

Lanzado Mar 11, 2025 desde Wenchang Space Launch Site

Loading…

Próximos Pases (próximas 24 horas)

TLE

ActualizadoSource: Space-Track

Época: Sep 14, 2026, 13:32 UTC

1 63159U 25046A   26257.56389287  .00000033  00000-0  31693-4 0  9993
2 63159  88.9650 291.3865 0016478  52.2184 308.0457 13.51025047 84652

Sigue QIANFAN-73 en tiempo real con AllMySat

Download on the App Store